Regional Weather Roundup
Issued by NWS Grand Forks, ND

Home | Current Version | Previous Version | Graphics & Text | Print | Product List | Glossary On
Versions: 1 2 3 4 5 6 7 8 9 10 11 12 13 14 15 16 17 18 19 20 21 22 23 24 25 26 27 28 29 30 31 32 33 34 35 36 37 38 39 40 41 42 43 44 45 46 47 48 49 50
000
ASUS43 KFGF 212010
RWRFGF
PRAIRIE TO PINES  WEATHER ROUNDUP
NATIONAL WEATHER SERVICE EASTERN NORTH DAKOTA/GRAND FORKS ND
200 PM CST SUN DEC 21 2014

 **SATELLITE DATA USED TO AUGMENT SKY COVER AT AUTOMATED STATIONS**
 *****  WEATHER ACROSS EASTERN NORTH DAKOTA  *****

CITY           SKY/WX    TMP DP  RH WIND       PRES   REMARKS
GRAND FORKS    CLOUDY    31  30  96 S12       29.61F FOG     WCI  22
GRAND FRKS AFB CLOUDY    32  32 100 S15       29.59F WCI  22
GRAND FRKS NWS   N/A     30 N/A N/A S12         N/A  WCI  21
DEVILS LAKE    CLOUDY    28  23  80 SE12      29.51S WCI  18
FARGO          CLOUDY    34  30  85 SE12G23   29.61F
WAHPETON ARPT  CLOUDY    32  30  93 SE16      29.62F WCI  21
$$

 ***** WEATHER ACROSS CENTRAL AND WESTERN NORTH DAKOTA  *****

CITY           SKY/WX    TMP DP  RH WIND       PRES   REMARKS
BISMARCK       SUNNY     38  28  67 SE8       29.45F
MINOT          SUNNY     36  31  82 E9        29.41F
JAMESTOWN      CLOUDY    33  30  88 SE13      29.52F FOG     WCI  24
MINOT AFB      MOSUNNY   32  32 100 SE8       29.40F
GARRISON         N/A     36  30  79 SE3       29.41F
WILLISTON      CLOUDY    34  27  75 CALM      29.34F
DICKINSON      CLOUDY    41  28  60 SW9       29.36F
HETTINGER      CLOUDY    40  28  62 SW5       29.40F
$$

 *****  OTHER AIRPORT OBSERVATIONS IN OUR AREA  *****

CITY           SKY/WX    TMP DP  RH WIND       PRES   REMARKS
WALHALLA         N/A     28  28 100 S13       29.58F WCI  18
GRAFTON AIRPOR NOT AVBL
VALLEY CITY AR CLOUDY    32  32 100 SE15      29.55F FOG     WCI  22
CANDO          CLOUDY    27  27 100 SE12      29.52F FOG     WCI  16
CAVALIER APRT  CLOUDY    30  30 100 S14       29.58F FOG     WCI  20
GWINNER        PTCLDY    37  34  87 SE12      29.57F
SHEYENNE NWR     N/A     35  31  87 SE10      29.95
ROLLA          FAIR      27  27 100 S8        29.49S WCI  18
 ***** THE ABOVE OBSERVATIONS ARE NON NWS ARE NOT QUALITY
       CONTROLLED AND MAY MIS-REPORT RAIN FOR SNOW...
$$

  *****  WEATHER ACROSS NORTHERN MINNESOTA  *****

CITY           SKY/WX    TMP DP  RH WIND       PRES   REMARKS
FLAG ISLAND    CLOUDY    30  28  93 S17       29.64F FOG     WCI  18
WARROAD        CLOUDY    30  27  86 S7        29.65F FOG     WCI  23
ROSEAU         CLOUDY    32  27  80 S12       29.64F HAZE    WCI  23
HALLOCK        CLOUDY    30  30 100 CALM      29.61F FOG
THF RVR FALLS  CLOUDY    30  28  93 S13       29.63F WCI  20
BAUDETTE       CLOUDY    31  28  89 S8        29.66F WCI  23
WASKISH        CLOUDY    32  30  93 SE3       29.67F
CROOKSTON      CLOUDY    30  30 100 S13       29.64F FOG     WCI  20
STEPHEN NDAWN    N/A     30  30 100 S14         N/A  WCI  20
GREENBUSH NDAW   N/A     30  30 100 S1          N/A
$$
  *****  WEATHER ACROSS CENTRAL AND WEST MINNESOTA  *****

CITY           SKY/WX    TMP DP  RH WIND       PRES   REMARKS
FOSSTON        CLOUDY    28  28 100 SE7       29.64F FOG     WCI  21
BEMIDJI        CLOUDY    31  29  94 S13       29.65F FOG     WCI  21
PARK RAPIDS    CLOUDY    32  31  96 S10       29.65F FOG     WCI  24
ELBOW LAKE     CLOUDY    32  32  99 SE15      29.62F FOG     WCI  22
WADENA         CLOUDY    30  30 100 S10       29.66F FOG     WCI  21
DETROIT LAKES  CLOUDY    32  32 100 S13       29.64S FOG     WCI  22
MOORHEAD       CLOUDY    34  34 100 SE13      29.63F FOG     WCI  25
FERGUS FALLS   CLOUDY    32  30  93 SE15      29.66F FOG     WCI  22
MORRIS MN      FOG       34  32  93 SE12      29.62F VSB 3/4
STAPLES        FOG       30  30 100 SE7       29.67F VSB 3/4 WCI  23
$$
  *****  WEATHER ELSEWHERE ACROSS MINNESOTA  *****

CITY           SKY/WX    TMP DP  RH WIND       PRES   REMARKS
DULUTH         CLOUDY    31  29  92 SE13      29.75F FOG     WCI  21
INTRNTL FALLS  CLOUDY    31  28  89 VRB7      29.70F WCI  24
ELY            LGT SNOW  30  28  93 S9        29.75F WCI  22
CLOQUET        CLOUDY    32  30  93 SE5       29.75F FOG
WHEATON        CLOUDY    30  28  93 SE16      29.63F FOG     WCI  19
BRAINERD       CLOUDY    33  32  96 S8        29.70F FOG
HIBBING        CLOUDY    32  29  88 SE8       29.73F FOG     WCI  25
ALEXANDRIA     CLOUDY    33  32  96 S14       29.65F FOG     WCI  23
SAINT CLOUD    FOG       36  34  92 S10       29.71F VSB 1
MINNEAPOLIS    LGT RAIN  35  34  96 SE10      29.76F FOG
$$

  *****  WEATHER ACROSS SOUTH DAKOTA  *****

CITY           SKY/WX    TMP DP  RH WIND       PRES   REMARKS
SIOUX FALLS    CLOUDY    35  34  96 S15       29.63F FOG
BROOKINGS      NOT AVBL
WATERTOWN      CLOUDY    32  31  96 S13       29.56F FOG     WCI  22
HURON          CLOUDY    33  30  88 SE15G25   29.53F WCI  23
SISSETON         N/A     33  31  92 S16       29.58  WCI  23
ABERDEEN       CLOUDY    34  30  85 SE14      29.53F WCI  25
MITCHELL       SUNNY     37  32  82 SE17      29.55F
PIERRE         SUNNY     33  28  81 SE10      29.43F WCI  25
MOBRIDGE       SUNNY     42  29  59 S12       29.42F
RAPID CITY     CLOUDY    46  30  53 CALM      29.38F
$$

  *****  SOME WEATHER IN NEARBY STATES *****

CITY           SKY/WX    TMP DP  RH WIND       PRES   REMARKS
GLASGOW MT     MIX PCPN  32  28  85 SE3       29.30F
GREAT FALLS MT CLOUDY    45  26  47 W30G38    29.42R
CHEYENNE WY    PTSUNNY   44  27  51 W39G49    29.51F
SCOTTSBLUFF NE CLOUDY    45  31  58 W14       29.48F
OMAHA NE       CLOUDY    42  39  89 S22       29.77F
DES MOINES IA  CLOUDY    42  35  76 S21G26    29.84F
DAVENPORT IA   CLOUDY    39  32  76 S13       29.99F
CHICAGO IL     CLOUDY    36  28  73 S15       30.09F
EAU CLAIRE WI  CLOUDY    34  33  96 S10       29.83F FOG
LA CROSSE WI   CLOUDY    39  35  86 S17       29.88F FOG
$$

  *****  SOME NATIONAL WEATHER *****

CITY           SKY/WX    TMP DP  RH WIND       PRES   REMARKS
LA GUARDIA NY  PTSUNNY   35  29  78 N8        30.29R
RALEIGH NC     MOSUNNY   50  34  54 NE6       30.24S
ATLANTA GA     CLOUDY    49  44  83 E7        30.11F
NEW ORLEANS LA CLOUDY    57  50  77 NE5       30.02F
OKLAHOMA CITY  DRIZZLE   47  43  86 S15       29.81F FOG
ALBUQUERQUE NM PTSUNNY   45  28  51 S3        29.94F
SALT LAKE CITY RAIN      41  38  89 SE12      29.94F
LOS ANGELES CA PTSUNNY   62  54  74 S3        30.11F
BOISE ID       LGT RAIN  46  42  86 NW13      29.94R FOG
SEATTLE WA     CLOUDY    53  46  77 SW12G21   29.95R
$$

*** WEATHER ACROSS MANITOBA...SASKATCHEWAN AND ONTARIO ***
                ***ONTARIO***

CITY           SKY/WX    TMP DP  RH WIND       PRES   REMARKS
GERALDTON      CLOUDY    32  28  86 S9        29.91F WCI  24
THUNDER BAY    CLOUDY    34  30  86 SE9       29.88F
SIOUX LOOKOUT  NOT AVBL
TORONTO        PTSUNNY   34  23  64 S8        30.27S
BIG TROUT LK   CLOUDY    28  27  93 S8        29.79F WCI  20
PICKLE LAKE    LGT SNOW  28  27  93 SE12      29.76F WCI  18
DRYDEN         LGT SNOW  28  28 100 SE8       29.70F WCI  20
KENORA         NOT AVBL
$$
                *** MANITOBA***

CITY           SKY/WX    TMP DP  RH WIND       PRES   REMARKS
BRANDON        FOG       27  27 100 E7        29.50F VSB 1/8 WCI  19
DAUPHIN        CLOUDY    30  27  86 CALM      29.52F
ISLAND LAKE    DRIZZLE   28  27  93 SE8       29.66F WCI  20
PILOT MOUND      N/A     25  23  93 CALM        N/A
THE PAS        CLOUDY    23  21  93 E6        29.56S WCI  16
THOMPSON       NOT AVBL
WINNIPEG       NOT AVBL
LYNN LAKE      FLURRIES  12  12 100 E3        29.62S
CHURCHILL      FLURRIES  14  12  92 W3        29.74S
GILLAM         FRZ DRZL  23  19  86 SW6       29.71S WCI  16
$$
                ***SASKATCHEWAN***

CITY           SKY/WX    TMP DP  RH WIND       PRES   REMARKS
ESTEVAN        MOSUNNY   28  28 100 E10       29.36F WCI  19
KINDERSLEY     CLOUDY    21  19  93 NE7       29.28R WCI  13
LLOYDMINSTER   LGT SNOW  18  16  93 E9        29.37R FOG     WCI   6
PRINCE ALBERT  CLOUDY    23  23 100 E9        29.45F FOG     WCI  13
REGINA         MOSUNNY   23  23 100 E15       29.34F WCI  10
YORKTON        CLOUDY    27  27 100 SE8       29.45S FOG     WCI  18
N. BATTLEFORD  CLOUDY    19  19 100 E9        29.38S WCI   9
LA RONGE       NOT AVBL
SASKATOON      CLOUDY    23  23 100 E13       29.38F WCI  11
SWIFT CURRENT    N/A     32  28  86 S14       29.22F WCI  22
$$
NOTE: THESE ARE AUTOMATED STATIONS WITH LIMITED QUALITY CONTROL
      "FAIR" INDICATES FEW OR NO CLOUDS BELOW 12,000 FEET WITH NO
      SIGNIFICANT WEATHER AND/OR OBSTRUCTIONS TO VISIBILITY.
      SKY/WX - SKY CONDITION AND SIGNIFICANT WEATHER.
      TMP - AIR TEMPERATURE.    DP   - DEWPOINT TEMPERATURE.
      RH  - RELATIVE HUMIDITY.  PRES - PRESSURE.
      HX  - HEAT INDEX.         WCI  - WIND CHILL INDEX.
$


USA.gov is the U.S. government's official web portal to all federal, state and local government web resources and services.